When you browse on this site, cookies collect data to enhance your experience and personalize the content and advertising you see.
Visit our Privacy Policy to learn more. By continuing to use the site, you agree to this use of cookies and data.
  • In United Kingdom
  • List of Countries
  • For 7 days
  • Water Temperature
  • Weather Map
  • Weather Widgets
  • user-avatar
    Login

    Hourly Weather Montecatini Terme

    Today, 15 September, Sunday

    Time Temperature Precipitation Wind Pressure Humidity
    00:00 +21°C° 0 mm 2 mps 765 mmHg 60%
    01:00 +21°C° 0 mm 2 mps 765 mmHg 60%
    02:00 +21°C° 0 mm 2 mps 765 mmHg 61%
    03:00 +21°C° 0 mm 2 mps 765 mmHg 61%
    04:00 +20°C° 0 mm 2 mps 764 mmHg 62%
    05:00 +21°C° 0 mm 2 mps 764 mmHg 63%
    06:00 +21°C° 0 mm 2 mps 765 mmHg 64%
    07:00 +22°C° 0 mm 1 mps 765 mmHg 64%
    08:00 +25°C° 0 mm 1 mps 765 mmHg 57%
    09:00 +27°C° 0 mm 1 mps 765 mmHg 51%
    10:00 +29°C° 0 mm 1 mps 765 mmHg 44%
    11:00 +30°C° 0 mm 1 mps 764 mmHg 42%
    12:00 +31°C° 0 mm 1 mps 764 mmHg 40%
    13:00 +32°C° 0 mm 1 mps 764 mmHg 37%
    14:00 +32°C° 0 mm 1 mps 764 mmHg 39%
    15:00 +32°C° 0 mm 1 mps 763 mmHg 40%
    16:00 +31°C° 0 mm 1 mps 762 mmHg 42%
    17:00 +29°C° 0 mm 1 mps 763 mmHg 49%
    18:00 +27°C° 0 mm 1 mps 763 mmHg 56%
    19:00 +25°C° 0 mm 1 mps 763 mmHg 63%
    20:00 +24°C° 0 mm 1 mps 763 mmHg 64%
    21:00 +23°C° 0 mm 1 mps 762 mmHg 66%
    22:00 +23°C° 0 mm 1 mps 762 mmHg 67%
    23:00 +23°C° 0 mm 1 mps 762 mmHg 68%

    Tomorrow, 16 September, Monday

    Time Temperature Precipitation Wind Pressure Humidity
    00:00 +22°C° 0 mm 1 mps 762 mmHg 68%
    01:00 +22°C° 0 mm 1 mps 762 mmHg 68%
    02:00 +22°C° 0 mm 1 mps 762 mmHg 68%
    03:00 +21°C° 0 mm 1 mps 761 mmHg 68%
    04:00 +21°C° 0 mm 1 mps 761 mmHg 68%
    05:00 +22°C° 0 mm 1 mps 761 mmHg 68%
    06:00 +22°C° 0 mm 1 mps 761 mmHg 68%
    07:00 +22°C° 0 mm 1 mps 761 mmHg 68%
    08:00 +25°C° 0 mm 1 mps 761 mmHg 61%
    09:00 +27°C° 0 mm 1 mps 761 mmHg 54%
    10:00 +29°C° 0 mm 1 mps 761 mmHg 47%
    11:00 +30°C° 0 mm 1 mps 761 mmHg 44%
    12:00 +31°C° 0 mm 1 mps 761 mmHg 41%
    13:00 +32°C° 0 mm 2 mps 760 mmHg 38%
    14:00 +31°C° 0 mm 2 mps 760 mmHg 39%
    15:00 +31°C° 0 mm 2 mps 759 mmHg 41%
    16:00 +31°C° 0 mm 2 mps 759 mmHg 42%
    17:00 +28°C° 0 mm 2 mps 759 mmHg 50%
    18:00 +26°C° 0 mm 2 mps 758 mmHg 58%
    19:00 +24°C° 0 mm 1 mps 758 mmHg 65%
    20:00 +23°C° 0 mm 1 mps 758 mmHg 68%
    21:00 +22°C° 0 mm 1 mps 759 mmHg 70%
    22:00 +22°C° 0 mm 1 mps 759 mmHg 72%
    23:00 +21°C° 0 mm 1 mps 759 mmHg 73%

    Day after tomorrow, 17 September, Tuesday

    Time Temperature Precipitation Wind Pressure Humidity
    00:00 +21°C° 0 mm 1 mps 759 mmHg 74%
    01:00 +19°C° 0 mm 0 mps 759 mmHg 75%
    02:00 +20°C° 0 mm 1 mps 759 mmHg 76%
    03:00 +20°C° 0 mm 1 mps 758 mmHg 77%
    04:00 +20°C° 0 mm 1 mps 758 mmHg 78%
    05:00 +20°C° 0 mm 1 mps 758 mmHg 77%
    06:00 +21°C° 0 mm 1 mps 758 mmHg 76%
    07:00 +21°C° 0 mm 1 mps 758 mmHg 75%
    08:00 +23°C° 0 mm 1 mps 758 mmHg 69%
    09:00 +25°C° 0 mm 1 mps 758 mmHg 62%
    10:00 +27°C° 0 mm 1 mps 758 mmHg 56%
    11:00 +28°C° 0 mm 1 mps 758 mmHg 53%
    12:00 +29°C° 0 mm 2 mps 758 mmHg 50%
    13:00 +30°C° 0 mm 2 mps 758 mmHg 48%
    14:00 +30°C° 0 mm 3 mps 757 mmHg 49%
    15:00 +30°C° 0 mm 3 mps 757 mmHg 50%
    16:00 +29°C° 0 mm 3 mps 756 mmHg 52%
    17:00 +27°C° 0 mm 2 mps 756 mmHg 62%
    18:00 +25°C° 0 mm 2 mps 756 mmHg 72%
    19:00 +23°C° 0 mm 1 mps 756 mmHg 82%
    20:00 +22°C° 0 mm 1 mps 756 mmHg 83%
    21:00 +22°C° 0 mm 1 mps 757 mmHg 84%
    22:00 +21°C° 0 mm 1 mps 757 mmHg 86%
    23:00 +21°C° 0 mm 1 mps 757 mmHg 86%

    18 September, Wednesday

    Time Temperature Precipitation Wind Pressure Humidity
    00:00 +21°C° 0 mm 1 mps 757 mmHg 87%
    01:00 +21°C° 0 mm 1 mps 757 mmHg 87%
    02:00 +21°C° 0 mm 1 mps 757 mmHg 87%
    03:00 +21°C° 0 mm 1 mps 757 mmHg 88%
    04:00 +21°C° 0 mm 1 mps 756 mmHg 88%
    05:00 +21°C° 0 mm 1 mps 757 mmHg 88%
    06:00 +22°C° 0 mm 1 mps 757 mmHg 87%
    07:00 +22°C° 0 mm 1 mps 757 mmHg 87%
    08:00 +24°C° 0 mm 1 mps 757 mmHg 80%
    09:00 +25°C° 0 mm 1 mps 757 mmHg 73%
    10:00 +27°C° 0 mm 1 mps 758 mmHg 65%
    11:00 +28°C° 0 mm 1 mps 757 mmHg 61%
    12:00 +29°C° 0 mm 1 mps 757 mmHg 56%
    13:00 +30°C° 0 mm 2 mps 757 mmHg 51%
    14:00 +30°C° 0.1 mm 2 mps 757 mmHg 52%
    15:00 +29°C° 0.1 mm 2 mps 757 mmHg 54%
    16:00 +29°C° 0.1 mm 2 mps 756 mmHg 55%
    17:00 +27°C° 0 mm 2 mps 756 mmHg 64%
    18:00 +25°C° 0 mm 1 mps 756 mmHg 73%
    19:00 +23°C° 0 mm 1 mps 756 mmHg 82%
    20:00 +23°C° 0 mm 1 mps 757 mmHg 83%
    21:00 +22°C° 0 mm 1 mps 757 mmHg 84%
    22:00 +22°C° 0 mm 1 mps 758 mmHg 85%
    23:00 +22°C° 0 mm 1 mps 758 mmHg 86%

    19 September, Thursday

    Time Temperature Precipitation Wind Pressure Humidity
    00:00 +22°C° 0 mm 1 mps 758 mmHg 86%
    01:00 +22°C° 0 mm 1 mps 758 mmHg 87%
    02:00 +21°C° 0 mm 1 mps 758 mmHg 87%
    03:00 +21°C° 0 mm 1 mps 758 mmHg 87%
    04:00 +20°C° 0 mm 2 mps 758 mmHg 88%
    05:00 +20°C° 0 mm 2 mps 758 mmHg 86%
    06:00 +21°C° 0 mm 2 mps 758 mmHg 85%
    07:00 +21°C° 0 mm 2 mps 758 mmHg 84%
    08:00 +23°C° 0 mm 2 mps 759 mmHg 77%
    09:00 +24°C° 0 mm 2 mps 759 mmHg 71%
    10:00 +26°C° 0 mm 2 mps 759 mmHg 64%
    11:00 +26°C° 0.1 mm 3 mps 759 mmHg 62%
    12:00 +27°C° 0.1 mm 3 mps 760 mmHg 60%
    13:00 +27°C° 0.1 mm 3 mps 760 mmHg 58%
    14:00 +26°C° 0.1 mm 3 mps 759 mmHg 60%
    15:00 +26°C° 0.1 mm 3 mps 759 mmHg 63%
    16:00 +25°C° 0.1 mm 3 mps 759 mmHg 65%
    17:00 +22°C° 0 mm 3 mps 759 mmHg 68%
    18:00 +21°C° 0 mm 3 mps 760 mmHg 72%
    19:00 +20°C° 0 mm 3 mps 760 mmHg 76%
    20:00 +19°C° 0 mm 3 mps 760 mmHg 76%
    21:00 +19°C° 0 mm 3 mps 761 mmHg 76%
    22:00 +18°C° 0 mm 3 mps 762 mmHg 76%
    23:00 +18°C° 0 mm 4 mps 762 mmHg 75%

    20 September, Friday

    Time Temperature Precipitation Wind Pressure Humidity
    00:00 +17°C° 0 mm 4 mps 762 mmHg 74%
    01:00 +17°C° 0 mm 4 mps 762 mmHg 73%
    02:00 +17°C° 0 mm 4 mps 762 mmHg 72%
    03:00 +17°C° 0 mm 4 mps 762 mmHg 71%
    04:00 +15°C° 0 mm 4 mps 762 mmHg 70%
    05:00 +15°C° 0 mm 4 mps 762 mmHg 69%
    06:00 +15°C° 0 mm 4 mps 762 mmHg 68%
    07:00 +15°C° 0 mm 4 mps 763 mmHg 67%
    08:00 +18°C° 0 mm 4 mps 763 mmHg 61%
    09:00 +19°C° 0 mm 4 mps 764 mmHg 55%
    10:00 +21°C° 0 mm 4 mps 764 mmHg 49%
    11:00 +22°C° 0 mm 4 mps 764 mmHg 46%
    12:00 +23°C° 0 mm 5 mps 764 mmHg 43%
    13:00 +25°C° 0 mm 5 mps 764 mmHg 40%
    14:00 +23°C° 0 mm 4 mps 764 mmHg 42%
    15:00 +23°C° 0 mm 4 mps 764 mmHg 43%
    16:00 +22°C° 0 mm 4 mps 764 mmHg 44%
    17:00 +21°C° 0 mm 4 mps 764 mmHg 48%
    18:00 +19°C° 0 mm 4 mps 764 mmHg 52%
    19:00 +17°C° 0 mm 3 mps 764 mmHg 56%
    20:00 +16°C° 0 mm 3 mps 765 mmHg 56%
    21:00 +16°C° 0 mm 3 mps 765 mmHg 57%
    22:00 +14°C° 0 mm 3 mps 765 mmHg 57%
    23:00 +14°C° 0 mm 3 mps 765 mmHg 57%
    Show more